General Leobardo C Ruiz International Airport
MMZC : rendu visible

Aérodrome :











RETROUVEZ-NOUS SUR...

 
LOGIN :

S'inscrire | Disclaimer

   EN    FR    IT 

 









Légende :    VFR   VFR Marginal   IFR   IFR Intensif   IFR Très Intensif
Visi : 
Plafond : 
>= 8 km
>= 3000ft
5 à 8 km
1000 à 3000 ft
1500m à 5 km
500 à 1000 ft
800 à 1500m
200 à 500 ft
< 800m
< 200 ft
Symboles :   Orages  Brouillard  Fortes neiges  Fortes précipitations  Vent > 20 kt






- Altitude de l'aérodrome : 7141 ft
- Code IATA : ZCL


MMZC - General Leobardo C Ruiz International

DERNIER METAR :
  • 051342Z 24020KT 10SM SCT010 BKN070 10/08 A3022 RMK 8/230

METARs EXPIRÉS :
  • 051247Z 24025KT 10SM BKN010 11/08 A3020 RMK 8/200
  • 051140Z 23020KT 7SM RA BKN008 10/09 A3019 RMK 8/600

TAF TAF MMZC
Valide du 05 à 12h jusqu'au 06 à 18h UTC


051127Z 0512/0618 20015KT P6SM VC RA BKN020 OVC080 TX18/0521Z TN10/0512Z
TEMPO 0512/0514 5SM RA
FM051500 23018KT P6SM SCT030 OVC100
TEMPO 0520/0524 23015G30KT
FM060200 23010KT P6SM BKN080 OVC250
FM061600 22010KT P6SM BKN100 OVC250
FIR MMFR / Amérique du Nord



MET'MAP, la Météo Aéronautique d'un coup d'oeil ! - Copyright ORBIFLY Décembre 2007 - Disclaimer

ORBIFLY MET'MAP TEAM :

Programmation & Développement : Alexandra Zaïnal
Sur une idée originale de : Baudouin d'Aumeries
Assistance à la programmation : Marc-Olivier Méhu
Soutien technique & logistique : Manuel Goepfert

Contact : metmap@orbifly.com




SOURCES & CREDITS :

   NOAA       Earth
Advisory